Greybull, WY

6:51 AM MST on December 11, 2017 (GMT -0700)
South Big Horn County

Weather History for KGEY - January, 2014

Change the Weather History Date:

Tuesday, January 14, 2014

  Actual Average Record
Temperature  
Mean Temperature 25 °F 17 °F  
Max Temperature 36 °F 29 °F 54 °F (2006)
Min Temperature 13 °F 5 °F -23 °F (2017)
Degree Days  
Heating Degree Days 40 48  
Month to date heating degree days 587 683  
Since 1 July heating degree days 3702 4006  
Cooling Degree Days 0 0  
Month to date cooling degree days 0 0  
Year to date cooling degree days 0 0  
Moisture  
Dew Point 24 °F    
Average Humidity 74    
Maximum Humidity 84    
Minimum Humidity 64    
Precipitation  
Precipitation T in 0.01 in 0.13 in (1979)
Month to date precipitation T 0.12  
Year to date precipitation T 0.12  
Sea Level Pressure  
Sea Level Pressure 30.42 in    
Wind  
Wind Speed 10 mph (West)    
Max Wind Speed 33 mph    
Max Gust Speed 42 mph    
Visibility 5 miles    
Events Snow    
T = Trace of Precipitation, MM = Missing Value Source: NWS Daily Summary

Daily Weather History Graph

Daily Weather History Graph

Search for Another Location

Airport or City:

Trip Planner

Search our weather history database for the weather conditions in past years. The results will help you decide how hot, cold, wet, or windy it might be!

Date:

Astronomy

Jan. 14, 2014 Rise Set
Actual Time 7:45 AM MST 4:57 PM MST
Civil Twilight 7:13 AM MST 5:29 PM MST
Nautical Twilight 6:37 AM MST 6:05 PM MST
Astronomical Twilight 6:02 AM MST 6:40 PM MST
Moon 4:06 PM MST (1/14) 6:21 AM MST (1/14)
Length of Visible Light 10h 16m
Length of Day
9h 11m
Waxing Gibbous, 98% of the Moon is Illuminated
Jan 14
Waxing Gibbous
Jan 15
Full
Jan 23
Last Quarter
Jan 30
New
Feb 6
First Quarter

Hourly Weather History & Observations

Time (MST) Temp. Windchill Dew Point Humidity Pressure Visibility Wind Dir Wind Speed Gust Speed Precip Events Conditions
12:53 AM 33.1 °F 19.8 °F 23.0 °F 66% 30.23 in 10.0 mi NW 26.5 mph 33.4 mph N/A   Overcast
1:53 AM 32.0 °F 18.6 °F 25.0 °F 75% 30.30 in 3.0 mi NW 25.3 mph 31.1 mph 0.00 in Snow Light Snow
2:17 AM 30.9 °F 19.4 °F 26.1 °F 82% 30.25 in 1.8 mi WNW 17.3 mph - 0.00 in Snow Light Snow
2:38 AM 32.0 °F 20.5 °F 26.1 °F 79% 30.26 in 2.0 mi NW 18.4 mph 29.9 mph 0.00 in Snow Light Snow
2:44 AM 32.0 °F 20.8 °F 25.0 °F 75% 30.26 in 3.0 mi NW 17.3 mph 25.3 mph 0.00 in Snow Light Snow
2:53 AM 32.0 °F 20.8 °F 24.1 °F 73% 30.32 in 5.0 mi NW 17.3 mph 32.2 mph 0.00 in Snow Light Snow
3:53 AM 32.0 °F 20.1 °F 23.0 °F 69% 30.36 in 3.0 mi NW 19.6 mph 32.2 mph 0.00 in Snow Light Snow
4:53 AM 30.9 °F 19.4 °F 24.1 °F 76% 30.38 in 7.0 mi NW 17.3 mph - 0.00 in Snow Light Snow
5:53 AM 30.9 °F 18.7 °F 24.1 °F 76% 30.42 in 5.0 mi NW 19.6 mph - 0.00 in Snow Light Snow
6:14 AM 30.9 °F 19.1 °F 24.1 °F 76% 30.36 in 1.8 mi WNW 18.4 mph - 0.00 in Snow Light Snow
6:24 AM 30.9 °F 18.1 °F 24.1 °F 76% 30.36 in 1.5 mi NW 21.9 mph - 0.00 in Snow Light Snow
6:53 AM 30.9 °F 19.1 °F 24.1 °F 76% 30.45 in 1.8 mi NW 18.4 mph - 0.00 in Snow Light Snow
7:13 AM 30.9 °F 20.2 °F 24.1 °F 76% 30.38 in 2.5 mi WNW 15.0 mph - 0.00 in Snow Light Snow
7:17 AM 30.9 °F 19.4 °F 24.1 °F 76% 30.38 in 4.0 mi WNW 17.3 mph - 0.00 in Snow Light Snow
7:41 AM 30.0 °F 17.5 °F 24.1 °F 79% 30.39 in 1.8 mi WNW 19.6 mph - 0.00 in Snow Light Snow
7:53 AM 30.0 °F 18.3 °F 24.1 °F 79% 30.47 in 2.5 mi WNW 17.3 mph - 0.00 in Snow Light Snow
8:06 AM 30.0 °F 19.1 °F 25.0 °F 82% 30.39 in 1.5 mi West 15.0 mph - 0.00 in Snow Light Snow
8:18 AM 30.0 °F 19.5 °F 25.0 °F 82% 30.39 in 1.0 mi WNW 13.8 mph - 0.00 in Snow Light Snow
8:24 AM 30.9 °F 21.2 °F 25.0 °F 79% 30.39 in 1.5 mi West 12.7 mph - 0.00 in Snow Light Snow
8:32 AM 30.9 °F 20.7 °F 25.0 °F 79% 30.41 in 2.5 mi West 13.8 mph - 0.00 in Snow Light Snow
8:38 AM 30.9 °F 20.7 °F 25.0 °F 79% 30.41 in 1.0 mi West 13.8 mph - 0.00 in Snow Light Snow
8:46 AM 30.9 °F 20.7 °F 25.0 °F 79% 30.41 in 0.8 mi West 13.8 mph - 0.00 in Snow Light Snow
8:53 AM 30.9 °F 19.8 °F 25.0 °F 79% 30.51 in 1.0 mi WNW 16.1 mph - 0.00 in Snow Light Snow
9:10 AM 30.9 °F 22.2 °F 25.0 °F 79% 30.43 in 1.2 mi WNW 10.4 mph - 0.00 in Snow Light Snow
9:21 AM 30.9 °F 21.7 °F 25.0 °F 79% 30.43 in 1.2 mi WNW 11.5 mph - 0.00 in Snow Light Snow
9:53 AM 30.9 °F 21.7 °F 25.0 °F 79% 30.53 in 2.0 mi WNW 11.5 mph - 0.00 in Snow Light Snow
10:07 AM 30.9 °F 24.3 °F 26.1 °F 82% 30.44 in 1.5 mi West 6.9 mph - 0.00 in Snow Light Snow
10:19 AM 30.9 °F 24.3 °F 25.0 °F 79% 30.45 in 2.5 mi West 6.9 mph - 0.00 in Snow Light Snow
10:26 AM 30.9 °F 23.5 °F 25.0 °F 79% 30.45 in 4.0 mi West 8.1 mph - 0.00 in Snow Light Snow
10:43 AM 30.9 °F 24.3 °F 25.0 °F 79% 30.45 in 2.0 mi West 6.9 mph - 0.00 in Snow Light Snow
10:53 AM 30.9 °F 25.2 °F 25.0 °F 79% 30.55 in 2.5 mi West 5.8 mph - 0.00 in Snow Light Snow
11:21 AM 32.0 °F 27.5 °F 25.0 °F 75% 30.45 in 1.8 mi WSW 4.6 mph - 0.00 in Snow Light Snow
11:35 AM 32.0 °F 28.7 °F 26.1 °F 79% 30.45 in 3.0 mi WSW 3.5 mph - 0.00 in Snow Light Snow
11:46 AM 33.1 °F - 27.0 °F 78% 30.44 in 4.0 mi Calm Calm - 0.00 in Snow Light Snow
11:53 AM 33.1 °F - 25.0 °F 72% 30.53 in 4.0 mi Calm Calm - 0.00 in Snow Light Snow
12:03 PM 34.0 °F - 26.1 °F 73% 30.44 in 7.0 mi Calm Calm - 0.00 in Snow Light Snow
12:41 PM 35.1 °F - 25.0 °F 67% 30.43 in 10.0 mi Calm Calm - 0.00 in   Overcast
12:53 PM 35.1 °F - 24.1 °F 64% 30.51 in 10.0 mi Calm Calm - 0.00 in   Overcast
1:53 PM 35.1 °F 31.0 °F 25.0 °F 67% 30.50 in 10.0 mi East 4.6 mph - N/A   Mostly Cloudy
2:48 PM 35.6 °F 29.9 °F 24.8 °F 65% 30.39 in 10.0 mi SSE 6.9 mph - N/A   Mostly Cloudy
2:53 PM 35.1 °F 29.3 °F 24.1 °F 64% 30.48 in 10.0 mi South 6.9 mph - N/A   Mostly Cloudy
3:17 PM 33.1 °F 28.7 °F 24.1 °F 70% 30.39 in 10.0 mi South 4.6 mph - N/A   Partly Cloudy
3:34 PM 35.1 °F 30.1 °F 25.0 °F 67% 30.39 in 10.0 mi SSE 5.8 mph - N/A   Mostly Cloudy
3:49 PM 33.8 °F 27.7 °F 23.0 °F 65% 30.40 in 10.0 mi South 6.9 mph - N/A   Scattered Clouds
3:53 PM 34.0 °F 28.8 °F 23.0 °F 64% 30.49 in 10.0 mi South 5.8 mph - N/A   Scattered Clouds
4:53 PM 30.0 °F - 23.0 °F 75% 30.51 in 10.0 mi Calm Calm - N/A   Clear
5:53 PM 27.0 °F 21.6 °F 21.9 °F 81% 30.51 in 10.0 mi South 4.6 mph - N/A   Clear
6:53 PM 25.0 °F 17.1 °F 19.9 °F 81% 30.50 in 10.0 mi East 6.9 mph - N/A   Clear
7:53 PM 24.1 °F 18.2 °F 19.0 °F 81% 30.49 in 10.0 mi ESE 4.6 mph - N/A   Mostly Cloudy
8:53 PM 21.9 °F 17.2 °F 17.1 °F 82% 30.47 in 10.0 mi ESE 3.5 mph - N/A   Clear
9:53 PM 18.0 °F 12.7 °F 14.0 °F 84% 30.46 in 10.0 mi South 3.5 mph - N/A   Clear
10:53 PM 18.0 °F - 12.0 °F 78% 30.45 in 10.0 mi Calm Calm - N/A   Clear
11:53 PM 12.9 °F 6.9 °F 7.0 °F 77% 30.44 in 10.0 mi WNW 3.5 mph - N/A   Clear